Date String (YYYY-MM-DD hh:mm:ss) UTC,Instrument flags,Ambient pressure (hPa),Sample flow (lpm),Bypass flow (lpm),Sample temperature (°C),Ambient temperature (°C),ASC tube jacket temperature (°C),LED temperature (°C),Box temperature (°C),Sample RH (%),Span deviation,Mass concentration (μg/m³),Mass concentration (μg/m³),Mass concentration (μg/m³)
DateTimeUTC,F1_M11,P_M11,Q1_M11,Q2_M11,T1_M11,T2_M11,T3_M11,T4_M11,T5_M11,U1_M11,ZSPAN_M11,X0_M11,X2_M11,X1_M11
2022-12-09 03:00:00,,0827.4,4.99,0.00,21.6,20.3,00.0,30.4,23.3,06.5,0000.0,0002.12,0000.90,0000.67
2022-12-09 03:01:00,,0827.4,5.00,0.00,21.5,20.2,00.0,30.4,23.2,06.6,0000.0,0002.17,0000.90,0000.65
2022-12-09 03:02:00,,0827.4,5.02,0.00,21.5,20.1,00.0,30.3,23.2,06.4,0000.0,0002.21,0000.88,0000.63
2022-12-09 03:03:00,,0827.3,5.00,0.00,21.5,20.0,00.0,30.3,23.1,06.4,0000.0,0002.09,0000.82,0000.60
2022-12-09 03:04:00,,0827.3,4.99,0.00,21.5,19.9,00.0,30.3,23.1,06.4,0000.0,0002.05,0000.79,0000.57
2022-12-09 03:05:00,,0827.4,5.00,0.00,21.4,19.9,00.0,30.3,23.1,06.5,0000.0,0002.06,0000.79,0000.55
2022-12-09 03:06:00,,0827.4,5.01,0.00,21.5,20.5,00.0,30.3,23.2,06.6,0000.0,0001.98,0000.76,0000.53
2022-12-09 03:07:00,,0827.4,5.00,0.00,21.6,21.5,00.0,30.3,23.4,06.7,0000.0,0001.96,0000.74,0000.51
2022-12-09 03:08:00,,0827.5,4.99,0.00,21.7,22.1,00.0,30.3,23.6,06.7,0000.0,0001.93,0000.72,0000.50
2022-12-09 03:09:00,,0827.5,5.00,0.00,21.7,21.8,00.0,30.4,23.6,06.9,0000.0,0001.81,0000.71,0000.51
2022-12-09 03:10:00,,0827.5,4.99,0.00,21.7,21.3,00.0,30.4,23.5,06.8,0000.0,0001.75,0000.71,0000.53
2022-12-09 03:11:00,,0827.5,5.02,0.00,21.7,21.0,00.0,30.4,23.4,06.7,0000.0,0001.16,0000.71,0000.55
2022-12-09 03:12:00,,0827.4,4.99,0.00,21.7,20.8,00.0,30.4,23.4,06.7,0000.0,0001.15,0000.73,0000.58
2022-12-09 03:13:00,,0827.5,4.99,0.00,21.7,20.6,00.0,30.4,23.3,06.8,0000.0,0001.08,0000.74,0000.60
2022-12-09 03:14:00,,0827.5,4.99,0.00,21.6,20.5,00.0,30.4,23.3,06.7,0000.0,0001.07,0000.75,0000.61
2022-12-09 03:15:00,,0827.5,5.00,0.00,21.6,20.3,00.0,30.4,23.3,06.8,0000.0,0001.07,0000.75,0000.61
2022-12-09 03:16:00,,0827.4,5.02,0.00,21.6,20.2,00.0,30.4,23.3,06.7,0000.0,0001.07,0000.75,0000.62
2022-12-09 03:17:00,,0827.4,5.00,0.00,21.6,20.1,00.0,30.4,23.2,06.7,0000.0,0001.11,0000.76,0000.63
2022-12-09 03:18:00,,0827.3,4.99,0.00,21.5,20.1,00.0,30.4,23.2,06.8,0000.0,0001.17,0000.79,0000.65
2022-12-09 03:19:00,,0827.2,4.99,0.00,21.5,20.0,00.0,30.4,23.2,06.9,0000.0,0001.91,0000.78,0000.65
2022-12-09 03:20:00,,0827.2,5.00,0.00,21.5,19.9,00.0,30.4,23.1,07.1,0000.0,0002.34,0000.79,0000.64
2022-12-09 03:21:00,,0827.2,5.03,0.00,21.5,19.8,00.0,30.4,23.1,07.0,0000.0,0002.37,0000.79,0000.63
2022-12-09 03:22:00,,0827.2,4.99,0.00,21.4,19.8,00.0,30.3,23.0,07.0,0000.0,0002.43,0000.82,0000.61
2022-12-09 03:23:00,,0827.2,4.99,0.00,21.4,20.3,00.0,30.3,23.2,07.0,0000.0,0002.36,0000.78,0000.58
2022-12-09 03:24:00,,0827.2,4.99,0.00,21.5,21.4,00.0,30.3,23.4,07.0,0000.0,0002.31,0000.74,0000.56
2022-12-09 03:25:00,,0827.2,5.01,0.00,21.6,21.7,00.0,30.4,23.5,07.0,0000.0,0002.31,0000.73,0000.54
2022-12-09 03:26:00,,0827.2,5.01,0.00,21.7,21.3,00.0,30.4,23.5,06.9,0000.0,0002.30,0000.72,0000.53
2022-12-09 03:27:00,,0827.2,5.00,0.00,21.6,21.0,00.0,30.4,23.4,06.9,0000.0,0002.23,0000.70,0000.52
2022-12-09 03:28:00,,0827.2,4.99,0.00,21.6,20.8,00.0,30.4,23.4,07.0,0000.0,0002.20,0000.68,0000.51
2022-12-09 03:29:00,,0827.2,4.99,0.00,21.6,20.6,00.0,30.4,23.3,06.9,0000.0,0002.15,0000.66,0000.50
2022-12-09 03:30:00,,0827.2,5.00,0.00,21.6,20.4,00.0,30.4,23.3,06.9,0000.0,0001.56,0000.67,0000.50
2022-12-09 03:31:00,,0827.2,5.01,0.00,21.6,20.3,00.0,30.4,23.2,06.9,0000.0,0000.97,0000.65,0000.49
2022-12-09 03:32:00,,0827.2,5.01,0.00,21.6,20.2,00.0,30.4,23.2,06.9,0000.0,0001.03,0000.68,0000.50
2022-12-09 03:33:00,,0827.2,5.00,0.00,21.6,20.1,00.0,30.4,23.2,06.9,0000.0,0001.00,0000.66,0000.51
2022-12-09 03:34:00,,0827.2,4.99,0.00,21.5,20.1,00.0,30.4,23.2,06.8,0000.0,0001.21,0000.64,0000.51
2022-12-09 03:35:00,,0827.2,4.99,0.00,21.5,20.0,00.0,30.4,23.2,06.9,0000.0,0002.08,0000.64,0000.51
2022-12-09 03:36:00,,0827.2,5.00,0.00,21.5,20.0,00.0,30.4,23.2,06.8,0000.0,0002.14,0000.64,0000.51
2022-12-09 03:37:00,,0827.2,5.01,0.00,21.5,20.7,00.0,30.3,23.3,06.7,0000.0,0002.14,0000.64,0000.50
2022-12-09 03:38:00,,0827.2,5.01,0.00,21.6,21.7,00.0,30.3,23.6,06.7,0000.0,0002.15,0000.64,0000.50
2022-12-09 03:39:00,,0827.2,4.99,0.00,21.8,22.4,00.0,30.4,23.8,06.6,0000.0,0002.16,0000.65,0000.50
2022-12-09 03:40:00,,0827.2,4.99,0.00,21.8,22.1,00.0,30.5,23.8,06.7,0000.0,0002.14,0000.64,0000.49
2022-12-09 03:41:00,,0827.1,5.02,0.00,21.8,21.6,00.0,30.5,23.7,06.7,0000.0,0002.09,0000.62,0000.49
2022-12-09 03:42:00,,0827.1,5.01,0.00,21.8,21.3,00.0,30.5,23.6,06.5,0000.0,0002.07,0000.60,0000.48
2022-12-09 03:43:00,,0827.2,5.00,0.00,21.8,21.1,00.0,30.5,23.6,06.4,0000.0,0001.95,0000.55,0000.48
2022-12-09 03:44:00,,0827.2,4.99,0.00,21.8,20.9,00.0,30.5,23.6,06.6,0000.0,0001.90,0000.53,0000.46
2022-12-09 03:45:00,,0827.2,4.99,0.00,21.8,20.8,00.0,30.5,23.5,06.7,0000.0,0001.67,0000.52,0000.45
2022-12-09 03:46:00,,0827.2,4.98,0.00,21.8,20.7,00.0,30.5,23.5,06.6,0000.0,0000.92,0000.52,0000.45
2022-12-09 03:47:00,,0827.2,5.01,0.00,21.8,20.5,00.0,30.5,23.5,06.6,0000.0,0000.72,0000.53,0000.45
2022-12-09 03:48:00,,0827.2,5.02,0.00,21.8,20.5,00.0,30.5,23.5,06.6,0000.0,0000.72,0000.52,0000.45
2022-12-09 03:49:00,,0827.2,4.98,0.00,21.7,20.4,00.0,30.6,23.5,06.7,0000.0,0000.70,0000.52,0000.46
2022-12-09 03:50:00,,0827.2,4.99,0.00,21.7,20.3,00.0,30.6,23.4,06.8,0000.0,0000.76,0000.58,0000.52
2022-12-09 03:51:00,,0827.2,5.00,0.00,21.7,20.2,00.0,30.6,23.4,06.8,0000.0,0000.82,0000.64,0000.58
2022-12-09 03:52:00,,0827.2,5.02,0.00,21.7,20.1,00.0,30.6,23.4,06.8,0000.0,0000.86,0000.68,0000.62
2022-12-09 03:53:00,,0827.3,5.01,0.00,21.7,20.1,00.0,30.5,23.4,06.8,0000.0,0000.88,0000.70,0000.64
2022-12-09 03:54:00,,0827.2,4.99,0.00,21.7,20.1,00.0,30.5,23.4,06.7,0000.0,0000.94,0000.74,0000.66
2022-12-09 03:55:00,,0827.3,4.99,0.00,21.6,20.0,00.0,30.5,23.3,06.7,0000.0,0000.98,0000.76,0000.66
2022-12-09 03:56:00,,0827.4,4.99,0.00,21.6,20.1,00.0,30.5,23.3,06.7,0000.0,0001.08,0000.80,0000.68
2022-12-09 03:57:00,,0827.4,5.00,0.00,21.6,20.1,00.0,30.5,23.3,06.8,0000.0,0001.16,0000.83,0000.70
2022-12-09 03:58:00,,0827.4,5.01,0.00,21.7,21.0,00.0,30.5,23.5,06.8,0000.0,0001.22,0000.88,0000.73
2022-12-09 03:59:00,,0827.5,5.00,0.00,21.8,21.9,00.0,30.5,23.7,06.8,0000.0,0001.33,0000.95,0000.77
